Flag for Western Sahara Weather past 2 weeks in Smara, Western Sahara

Now
68 °F

Sunny.


Feels Like: 68 °F
Forecast: 56 / 89 °F
Wind: 17 mph from Northeast

Location: Laayoune/Hassan Isl

Current Time: Apr 26, 2015 at 9:37:41 PM

Latest Report: Apr 26, 2015 at 9:00 PM


Visibility: 10 mi

Pressure: 30.07 "Hg

Humidity: 64%

Dew point: 55 °F

Location of SmaraLocation

Historic Weather in Smara — Graph

°F

Smara temperature yesterday

Maximum temperature yesterday: 79 °F (at 2:00 PM)
Minimum temperature yesterday: 55 °F (at 7:00 AM)
Average temperature yesterday: 66 °F

Past Weeks' High & Low Weather Summary

 TemperatureHumidityPressure
High79 °F (Apr 17, 4:00 PM)94% (Apr 26, 7:00 AM)30.12 "Hg (Apr 26, 7:00 AM)
Low52 °F (Apr 14, 8:00 AM)34% (Apr 16, 4:00 PM)29.95 "Hg (Apr 17, 7:00 PM)
Average66 °F64%30.05 "Hg
* Reported Apr 11 8:00 PM — Apr 26 8:00 PM, Smara, Weather by CustomWeather, © 2015

Note: Actual official high and low records may vary slightly from our data, if they occured in-between our weather recording intervals... More about our weather records

Advertising

Smara weather history for previous 24 hours

 ConditionsComfort  
Time TempWeatherWind HumidityBarometerVisibility
8:00 PM
Sun, Apr 26
72 °FSunny.17 mph53%30.07 "Hg10 mi
7:00 PM75 °FSunny.20 mph44%30.04 "Hg10 mi
6:00 PM79 °FSunny.17 mph37%30.04 "Hg10 mi
5:00 PM79 °FSunny.17 mph42%30.04 "Hg10 mi
4:00 PM79 °FSunny.15 mph37%30.04 "Hg10 mi
3:00 PM77 °FSunny.15 mph44%30.07 "Hg10 mi
2:00 PM77 °FSunny.13 mph44%30.07 "Hg10 mi
1:00 PM75 °FSunny.13 mph47%30.07 "Hg10 mi
12:00 PM73 °FScattered clouds.13 mph57%30.09 "HgN/A
11:00 AM68 °FPartly sunny.13 mph69%30.09 "HgN/A
10:00 AM66 °FPartly sunny.12 mph78%30.09 "HgN/A
9:00 AM63 °FScattered clouds.2 mph88%30.09 "HgN/A
8:00 AM59 °FPassing clouds.3 mph88%30.09 "Hg4 mi
7:00 AM59 °FPassing clouds.6 mph94%30.07 "Hg5 mi
6:00 AM59 °FClear.7 mph88%30.07 "Hg10 mi
5:00 AM61 °FClear.7 mph88%30.07 "Hg10 mi
4:00 AM61 °FClear.6 mph88%30.07 "Hg10 mi
3:00 AM63 °FClear.9 mph83%30.09 "Hg10 mi
2:00 AM63 °FClear.9 mph83%30.09 "Hg10 mi
1:00 AM66 °FClear.12 mph78%30.12 "Hg10 mi
12:00 AM66 °FClear.12 mph78%30.12 "Hg10 mi
11:00 PM
Sat, Apr 25
66 °FClear.9 mph73%30.12 "Hg10 mi
10:00 PM66 °FClear.9 mph73%30.09 "Hg10 mi
9:00 PM68 °FClear.13 mph64%30.07 "Hg5 mi
Weather by CustomWeather, © 2015

See weather overviewHow to use our weather pages